Retour au catalogue

THOR ABLESTAR DEB

ActifLEO
NORAD 5786·DEBRIS·🇺🇸 United States

Lancé Jun 29, 1961 depuis Cape Canaveral Space Force Station

Loading…

Prochains Passages (prochaines 24 heures)

TLE

FraisSource: Space-Track

Époque: Sep 14, 2026, 13:25 UTC

1 05786U 61015KA  26257.55971432  .00000446  00000-0  32059-3 0  9993
2 05786  67.1181  98.8670 0114456  80.6068 280.7938 14.02431973287096

Suivez THOR ABLESTAR DEB en temps réel avec AllMySat

Download on the App Store